SCOUT G-1 DEB

Satellite information

Favourite Embed

Satellite Type and Status

DEBRISIN ORBIT

Key statistics

Satellite SCOUT G-1 DEB at a glance.

Uptime

15351

Days in orbit

Revolutions

≈ 14.4

Per day

Orbit

LEO

Low Earth Orbit

Inclination

81.7

Latest

Satellite identification and parameters

Extended collection of information and parameters for SCOUT G-1 DEB.

Object identification

Identified? True

Debris? True

Object name: SCOUT G-1 DEB

International designator: 1983-063D

Object number (NORAD): 14223

Object ID (CCSDS): 14223

Country: UNITED STATES OF AMERICA (US)

Current information (Y/N): Y

RCS size: SMALL

Orbital parameters

Period: 99.928 minutes

Inclination: 81.6512 deg

SMA: 7133.192 km

Apoapsis: 793.479 km

Periapsis: 716.636 km

RAAN: 229.1505 deg

Eccentricy: 0.0053863

Argument of periapsis: 83.1135 deg

Mean anomaly: 43.4875 deg

Mean motion: 14.41042829 rev/day

Mean motion (dot): 0.00000529 rev/day2

B* drag term: 0.00015704 1/REarth

Two-line elements (TLE)

Creation date: July 6, 2025, 6:05 p.m.

Reference frame: TEME

Reference center: EARTH

Epoch: July 6, 2025, 2:28 p.m. UTC

TLE line 0: 0 SCOUT G-1 DEB

TLE line 1: 1 14223U 83063D 25187.60300500 .00000529 00000-0 15704-3 0 9995

TLE line 2: 2 14223 81.6512 229.1505 0053863 83.1135 43.4875 14.41042829195637

Live tracking on map

Real-time ground track for satellite SCOUT G-1 DEB.

In-orbit conjunctions

A list of the most updated potential collisions computed for object SCOUT G-1 DEB.

Target Orbit TCA Probability of collision Miss distance Type
COSMOS 494 LEO 2025-04-23 11:00:50 0.0002580368 405.0 (m) PAYLOAD
NOAA 17 DEB SSO 2024-11-11 23:27:52 0.0007601854 150.0 (m) DEBRIS
CZ-6A DEB LEO 2024-11-10 16:36:53 0.000682413 916.0 (m) DEBRIS
CZ-6A DEB LEO 2024-11-09 18:56:10 0.0003410579 263.0 (m) DEBRIS
COSMOS 1275 DEB LEO 2024-09-28 00:20:02 0.0004921498 63.0 (m) DEBRIS

Associated space launch

Refurbished Transit-O 16 satellite used to carry remote-sensing experiments and in situ measurements

SCOUT G-1 DEB was lifted into orbit during the mission ‘Scout D-1 | HILAT’, on board a Scout D-1 space rocket.

The launch took place on June 27, 1983, 3:37 p.m. from Space Launch Complex 5.

For more information about the launch, click the button.

Launch to space Scout D-1 | HILAT
Scout D-1 | HILAT

Agency: N/A

Status: Launch Successful

Launch date: June 27, 1983, 3:37 p.m. UTC

Rocket: Scout D-1

Launch pad: Space Launch Complex 5

Location: Vandenberg SFB, CA, USA

...

Latest news about this satellite

There are no fresh news available about this satellite. Check back as we update our databases every day.


Newsletter sign-up

Weekly statistics, charts and insights to help you stay on top of the space industry.